Content
SEND FEEDBACK

Daily
Averages
Monthly
Summary
United States of America

AGAT, GUAM


Home > North America > United States > Guam
Elevation: 364 feet     Latitude: 13 33N     Longitude: 144 50E

WEATHER
 
SELECT A DAY
Number of Records: 209,165;   Date Range: 1/1/95 - 8/30/14
 
SHARE

PRINT THIS DATA

[ ← Previous Day ]
WEATHER ALMANAC - JANUARY 18, 2013
[ Next Day → ]
[ °C ]   °F
Weather ElementAverageHighLow
Temperature80.3 °F84.9 °F (1:54 pm)75.9 °F (11:54 pm)
Dewpoint70.8 °F73.9 °F (8:54 am)66.9 °F (3:54 pm)
Humidity73.3 %85 % (11:54 pm)55 % (3:54 pm)
Barometer29.87 in29.92 in (8:45 am)29.82 in (2:54 pm)
Wind Speed8.7 mph13.8 mph (9:25 am)
Wind Gust21.9 mph (1:54 pm)
Weather ElementAverage
Visibility10 mi
Wind DirectionENE (70 °)

Weather ElementTotal
Precipitation---
Cooling Degree Days15.4 (Base 65)
Growing Degree Days30.4 (Base 50)
Averaged from 25 records on January 18, 2013
WEATHER CONDITIONS BREAKOUT
WIND DIRECTION BREAKOUT
WEATHER BY HOUR - JANUARY 18, 2013
[ °C ]   °F
Local TimeTemperatureDewpointHumidityBarometerVisibilityWind DirectionWind SpeedGust SpeedPrecipitationEventsConditions
1:54 AM79.0 °F71.1 °F77 %29.83 in10.0 miENE (70°)6.9 mphMostly Cloudy
2:54 AM78.1 °F70.0 °F76 %29.83 in10.0 miEast (80°)5.8 mphPartly Cloudy
3:54 AM77.0 °F71.1 °F82 %29.83 in10.0 miEast (80°)5.8 mphClear
4:54 AM78.1 °F70.0 °F76 %29.84 in10.0 miENE (70°)6.9 mphClear
5:54 AM77.0 °F70.0 °F79 %29.84 in10.0 miENE (60°)8.1 mphClear
6:54 AM77.0 °F70.0 °F79 %29.86 in10.0 miENE (70°)6.9 mphClear
7:54 AM79.0 °F71.1 °F77 %29.88 in10.0 miEast (80°)5.8 mphClear
8:45 AM80.6 °F73.4 °F79 %29.92 in10.0 miEast (80°)11.5 mphMostly Cloudy
8:54 AM80.1 °F73.9 °F81 %29.90 in10.0 miEast (100°)8.1 mphMostly Cloudy
9:25 AM80.6 °F73.4 °F79 %29.92 in10.0 miENE (60°)13.8 mph0.00 inMostly Cloudy
9:54 AM82.0 °F73.0 °F74 %29.90 in10.0 miEast (90°)11.5 mph0.00 inMostly Cloudy
10:54 AM84.0 °F70.0 °F63 %29.88 in10.0 miEast (80°)11.5 mphPartly Cloudy
11:54 AM84.0 °F71.1 °F65 %29.87 in10.0 miEast (80°)13.8 mphPartly Cloudy
12:54 PM84.0 °F71.1 °F65 %29.85 in10.0 miESE (110°)11.5 mphPartly Cloudy
1:54 PM84.9 °F68.0 °F57 %29.83 in10.0 miEast (90°)12.7 mph21.9 mphPartly Cloudy
2:54 PM84.9 °F69.1 °F59 %29.82 in10.0 miEast (80°)12.7 mphClear
3:54 PM84.9 °F66.9 °F55 %29.82 in10.0 miENE (60°)12.7 mphPartly Cloudy
4:54 PM84.0 °F69.1 °F61 %29.85 in10.0 miENE (70°)9.2 mphPartly Cloudy
5:54 PM82.0 °F70.0 °F67 %29.86 in10.0 miENE (60°)10.4 mphPartly Cloudy
6:54 PM80.1 °F71.1 °F74 %29.88 in10.0 miNE (50°)5.8 mphPartly Cloudy
7:54 PM79.0 °F71.1 °F77 %29.91 in10.0 miNE (50°)4.6 mphPartly Cloudy
8:54 PM77.0 °F71.1 °F82 %29.92 in10.0 miNE (50°)5.8 mphPartly Cloudy
9:54 PM77.0 °F71.1 °F82 %29.92 in10.0 miNE (40°)4.6 mphPartly Cloudy
10:54 PM77.0 °F71.1 °F82 %29.91 in10.0 miNE (50°)4.6 mphScattered Clouds
11:54 PM75.9 °F71.1 °F85 %29.91 in10.0 miNE (40°)5.8 mphPartly Cloudy
Hourly data recorded from PGUM, located miles away from Agat, Guam







STORIES FROM OUR PARTNERS